Regional Weather Roundup
Issued by NWS

Home | Current Version | Previous Version | Graphics & Text | Print | Product List | Glossary On
Versions: 1 2 3 4 5 6 7 8 9 10 11 12 13 14 15 16 17 18 19 20 21 22 23 24 25 26 27 28 29 30 31 32 33 34 35 36 37 38 39 40 41 42 43 44 45 46 47 48 49 50
000
ASUS43 KLMK 210302
RWRKY
KENTUCKY REGIONAL WEATHER ROUNDUP
NATIONAL WEATHER SERVICE LOUISVILLE KY
1100 PM EDT MON APR 20 2015

NOTE "FAIR" INDICATES FEW OR NO CLOUDS BELOW 12,000 FEET
WITH NO SIGNIFICANT WEATHER AND/OR OBSTRUCTIONS TO VISIBILITY.

KYZ001>023-026-027-061>063-070>075-210400-
WESTERN AND SOUTH CENTRAL KENTUCKY

CITY           SKY/WX    TMP DP  RH WIND       PRES   REMARKS
PADUCAH        PTCLDY    53  36  52 W3        29.88R
HENDERSON      PTCLDY    48  36  61 W5        29.85R
OWENSBORO      MOCLDY    53  41  64 NW5       29.87R
HOPKINSVILLE   MOCLDY    54  41  60 W6        29.86R
BOWLING GREEN  MOCLDY    54  42  64 W3        29.86R
GLASGOW        NOT AVBL
$$

KYZ024-025-028>034-038-045-046-053-210400-
NORTH CENTRAL KENTUCKY

CITY           SKY/WX    TMP DP  RH WIND       PRES   REMARKS
LOUISVILLE/SDF PTCLDY    51  35  54 W8        29.83R
LOUISVILLE/LOU CLEAR     51  34  52 W9        29.83R
FORT KNOX      MOCLDY    48  37  65 W7        29.82R
$$

KYZ035>037-039>044-047>052-055>060-089>105-210400-
NORTHEAST KENTUCKY

CITY           SKY/WX    TMP DP  RH WIND       PRES   REMARKS
LEXINGTON      CLOUDY    51  38  60 W8        29.81R
COVINGTON      PTCLDY    48  34  58 W9        29.77R
FRANKFORT      CLOUDY    52  36  54 W6G18     29.81R
$$

KYZ054-064>069-076>088-106>120-210400-
SOUTHEAST KENTUCKY

CITY           SKY/WX    TMP DP  RH WIND       PRES   REMARKS
JACKSON        CLOUDY    51  45  79 VRB3      29.80R
LONDON         CLOUDY    52  46  80 SW6       29.83R
SOMERSET       NOT AVBL
MIDDLESBORO    CLOUDY    54  47  78 CALM      29.85R
MONTICELLO     MOCLDY    52  50  93 SW7       29.88R
$$



USA.gov is the U.S. government's official web portal to all federal, state and local government web resources and services.